Regional Weather Roundup
Issued by NWS

Home | Current Version | Previous Version | Graphics & Text | Print | Product List | Glossary On
Versions: 1 2 3 4 5 6 7 8 9 10 11 12 13 14 15 16 17 18 19 20 21 22 23 24 25 26 27 28 29 30 31 32 33 34 35 36 37 38 39 40 41 42 43 44 45 46 47 48 49 50
184
ASUS43 KFSD 180610
RWRSD

WEATHER ROUNDUP FOR SOUTH DAKOTA
NATIONAL WEATHER SERVICE SIOUX FALLS SD
100 AM CDT FRI AUG 18 2017

NOTE: "FAIR" INDICATES FEW OR NO CLOUDS BELOW 12,000 FEET WITH NO
SIGNIFICANT WEATHER AND/OR OBSTRUCTIONS TO VISIBILITY.


SDZ001>005-009-010-012>017-180700-
NORTHWEST AND NORTH CENTRAL SOUTH DAKOTA

CITY           SKY/WX    TMP DP  RH WIND       PRES   REMARKS
BUFFALO          N/A     62  44  51 W8        29.91R
FAITH            N/A     64  49  57 W8        29.91F
MOBRIDGE       PTCLDY    67  62  84 SE10      29.86R
$$

SDZ012>016-024>037-041>051-057-063-072>074-180700-
SOUTHWEST AND SOUTH CENTRAL SOUTH DAKOTA

CITY           SKY/WX    TMP DP  RH WIND       PRES   REMARKS
RAPID CTY ARPT CLEAR     61  48  62 NW10      29.99R
PIERRE         CLOUDY    66  59  78 E7        29.90R
CUSTER         CLEAR     54  39  57 W8        30.15S
ELLSWORTH AFB  CLEAR     60  48  63 W6        29.98R
PHILIP         CLEAR     61  49  64 SW7       29.93R
PINE RIDGE     CLEAR     55  53  93 CALM      30.02R
SPEARFISH      FAIR      59  43  55 CALM      30.04S
WINNER         FAIR      65  60  84 S7        29.92R
$$

SDZ004>011-016>023-039-040-180700-
NORTHEAST SOUTH DAKOTA

CITY           SKY/WX    TMP DP  RH WIND       PRES   REMARKS
ABERDEEN       CLOUDY    63  61  93 S7        29.88R
WATERTOWN      CLOUDY    64  57  78 S12       29.89F
BROOKINGS      LGT RAIN  63  57  81 SW8       29.94F
SISSETON         N/A     61  60  97 S3        29.87S
$$

SDZ017-020-022-023-036>040-048>070-180700-
SOUTHEAST SOUTH DAKOTA

CITY           SKY/WX    TMP DP  RH WIND       PRES   REMARKS
SIOUX FALLS    CLOUDY    67  61  81 N10       29.95R
HURON          CLOUDY    64  57  78 SE10      29.87F
CHAMBERLAIN    CLOUDY    65  63  92 SE10      29.92F
MITCHELL       LGT RAIN  65  62  90 S8        29.95R
YANKTON        CLOUDY    70  61  73 NW12      29.96R
$$

ABBREVIATIONS USED IN REMARKS
   TC - TEMPERATURE IN CELSIUS
  WCI - WIND CHILL INDEX
   HX - HEAT INDEX
  VSB - VISIBILITY





USA.gov is the U.S. government's official web portal to all federal, state and local government web resources and services.